Time,TemperatureF,DewpointF,PressureIn,WindDirection,WindDirectionDegrees,WindSpeedMPH,WindSpeedGustMPH,Humidity,HourlyPrecipIn,Conditions,Clouds,dailyrainin,SolarRadiationWatts/m^2,SoftwareType,DateUTC
2013-08-12 00:10:00,71.3,59.0,29.70,WNW,296,0.0,0.0,66,0.00,,,0.00,0,weatherlink.com 1.10,2013-08-12 07:10:00,
2013-08-12 00:25:00,70.6,59.0,29.70,WNW,296,0.0,1.0,67,0.00,,,0.00,0,weatherlink.com 1.10,2013-08-12 07:25:00,
2013-08-12 00:40:00,70.0,59.0,29.70,WNW,296,0.0,1.0,69,0.00,,,0.00,0,weatherlink.com 1.10,2013-08-12 07:40:00,
2013-08-12 00:55:00,69.6,59.0,29.70,WNW,296,0.0,1.0,69,0.00,,,0.00,0,weatherlink.com 1.10,2013-08-12 07:55:00,
2013-08-12 01:10:00,69.6,60.0,29.70,WNW,296,0.0,3.0,71,0.00,,,0.00,0,weatherlink.com 1.10,2013-08-12 08:10:00,
2013-08-12 01:25:00,69.3,60.0,29.69,WNW,296,0.0,2.0,71,0.00,,,0.00,0,weatherlink.com 1.10,2013-08-12 08:25:00,
2013-08-12 01:40:00,68.9,60.0,29.69,WNW,296,0.0,0.0,72,0.00,,,0.00,0,weatherlink.com 1.10,2013-08-12 08:40:00,
2013-08-12 01:55:00,68.5,60.0,29.69,WNW,296,1.0,3.0,74,0.00,,,0.00,0,weatherlink.com 1.10,2013-08-12 08:55:00,
2013-08-12 02:10:00,68.4,60.0,29.69,WNW,295,0.0,5.0,74,0.00,,,0.00,0,weatherlink.com 1.10,2013-08-12 09:10:00,
2013-08-12 02:25:00,68.4,60.0,29.69,WNW,295,0.0,1.0,74,0.00,,,0.00,0,weatherlink.com 1.10,2013-08-12 09:25:00,
2013-08-12 02:40:00,67.4,60.0,29.69,WNW,295,0.0,0.0,76,0.00,,,0.00,0,weatherlink.com 1.10,2013-08-12 09:40:00,
2013-08-12 02:55:00,66.3,59.0,29.69,WNW,296,0.0,0.0,78,0.00,,,0.00,0,weatherlink.com 1.10,2013-08-12 09:55:00,
2013-08-12 03:10:00,65.6,59.0,29.68,WNW,296,1.0,2.0,80,0.00,,,0.00,0,weatherlink.com 1.10,2013-08-12 10:10:00,
2013-08-12 03:25:00,65.1,59.0,29.68,WNW,296,1.0,2.0,81,0.00,,,0.00,0,weatherlink.com 1.10,2013-08-12 10:25:00,
2013-08-12 03:40:00,64.9,59.0,29.68,WNW,296,1.0,1.0,81,0.00,,,0.00,0,weatherlink.com 1.10,2013-08-12 10:40:00,
2013-08-12 03:55:00,64.7,59.0,29.68,WNW,296,0.0,1.0,81,0.00,,,0.00,0,weatherlink.com 1.10,2013-08-12 10:55:00,
2013-08-12 04:12:00,64.6,59.0,29.68,WNW,296,0.0,1.0,81,0.00,,,0.00,0,weatherlink.com 1.10,2013-08-12 11:12:00,
2013-08-12 04:25:00,64.7,59.0,29.68,WNW,296,0.0,2.0,82,0.00,,,0.00,0,weatherlink.com 1.10,2013-08-12 11:25:00,
2013-08-12 04:40:00,64.6,59.0,29.68,WNW,296,0.0,2.0,81,0.00,,,0.00,0,weatherlink.com 1.10,2013-08-12 11:40:00,
2013-08-12 04:55:00,64.5,59.0,29.69,WNW,296,0.0,1.0,82,0.00,,,0.00,0,weatherlink.com 1.10,2013-08-12 11:55:00,
2013-08-12 05:10:00,64.0,59.0,29.69,WNW,296,0.0,2.0,83,0.00,,,0.00,0,weatherlink.com 1.10,2013-08-12 12:10:00,
2013-08-12 05:25:00,64.0,59.0,29.69,WNW,296,0.0,1.0,83,0.00,,,0.00,0,weatherlink.com 1.10,2013-08-12 12:25:00,
2013-08-12 05:40:00,64.0,59.0,29.70,WNW,296,0.0,1.0,84,0.00,,,0.00,0,weatherlink.com 1.10,2013-08-12 12:40:00,
2013-08-12 05:55:00,64.3,59.0,29.71,WNW,296,0.0,1.0,83,0.00,,,0.00,14,weatherlink.com 1.10,2013-08-12 12:55:00,
2013-08-12 06:10:00,64.7,59.0,29.71,WNW,296,0.0,1.0,83,0.00,,,0.00,40,weatherlink.com 1.10,2013-08-12 13:10:00,
2013-08-12 06:25:00,65.3,60.0,29.71,WNW,296,0.0,1.0,84,0.00,,,0.00,67,weatherlink.com 1.10,2013-08-12 13:25:00,
2013-08-12 06:41:00,66.8,62.0,29.71,WNW,296,0.0,1.0,83,0.00,,,0.00,104,weatherlink.com 1.10,2013-08-12 13:41:00,
2013-08-12 06:56:00,68.4,61.0,29.71,WNW,296,0.0,1.0,78,0.00,,,0.00,162,weatherlink.com 1.10,2013-08-12 13:56:00,
2013-08-12 07:11:00,70.6,63.0,29.72,WNW,297,0.0,3.0,77,0.00,,,0.00,213,weatherlink.com 1.10,2013-08-12 14:11:00,
2013-08-12 07:26:00,72.3,64.0,29.72,WNW,297,0.0,3.0,75,0.00,,,0.00,271,weatherlink.com 1.10,2013-08-12 14:26:00,
2013-08-12 07:41:00,73.1,64.0,29.72,WNW,297,0.0,3.0,72,0.00,,,0.00,327,weatherlink.com 1.10,2013-08-12 14:41:00,
2013-08-12 07:56:00,73.7,63.0,29.73,WNW,296,3.0,4.0,69,0.00,,,0.00,357,weatherlink.com 1.10,2013-08-12 14:56:00,
2013-08-12 08:11:00,74.3,64.0,29.73,WNW,292,2.0,5.0,70,0.00,,,0.00,418,weatherlink.com 1.10,2013-08-12 15:11:00,
2013-08-12 08:26:00,74.9,64.0,29.73,WNW,291,1.0,4.0,68,0.00,,,0.00,478,weatherlink.com 1.10,2013-08-12 15:26:00,
2013-08-12 08:42:00,76.3,64.0,29.73,WNW,291,0.0,1.0,65,0.00,,,0.00,515,weatherlink.com 1.10,2013-08-12 15:42:00,
2013-08-12 08:56:00,78.2,63.0,29.73,SE,133,4.0,6.0,60,0.00,,,0.00,554,weatherlink.com 1.10,2013-08-12 15:56:00,
2013-08-12 09:11:00,80.2,63.0,29.73,ESE,105,3.0,7.0,56,0.00,,,0.00,612,weatherlink.com 1.10,2013-08-12 16:11:00,
2013-08-12 09:26:00,81.5,62.0,29.73,ESE,108,7.0,7.0,52,0.00,,,0.00,670,weatherlink.com 1.10,2013-08-12 16:26:00,
2013-08-12 09:43:00,82.0,62.0,29.73,ENE,68,5.0,8.0,51,0.00,,,0.00,717,weatherlink.com 1.10,2013-08-12 16:43:00,
2013-08-12 09:56:00,82.8,64.0,29.73,East,94,1.0,7.0,53,0.00,,,0.00,747,weatherlink.com 1.10,2013-08-12 16:56:00,
2013-08-12 10:11:00,83.1,64.0,29.73,East,81,4.0,7.0,52,0.00,,,0.00,782,weatherlink.com 1.10,2013-08-12 17:11:00,
2013-08-12 10:26:00,84.1,62.0,29.73,East,99,1.0,5.0,48,0.00,,,0.00,814,weatherlink.com 1.10,2013-08-12 17:26:00,
2013-08-12 10:41:00,85.2,63.0,29.73,SSE,163,2.0,5.0,47,0.00,,,0.00,846,weatherlink.com 1.10,2013-08-12 17:41:00,
2013-08-12 10:56:00,86.5,63.0,29.73,SE,139,3.0,6.0,46,0.00,,,0.00,881,weatherlink.com 1.10,2013-08-12 17:56:00,
2013-08-12 11:13:00,86.6,62.0,29.72,ESE,115,0.0,6.0,43,0.00,,,0.00,893,weatherlink.com 1.10,2013-08-12 18:13:00,
2013-08-12 11:27:00,86.3,63.0,29.72,SE,133,2.0,6.0,45,0.00,,,0.00,976,weatherlink.com 1.10,2013-08-12 18:27:00,
2013-08-12 11:42:00,84.8,62.0,29.72,ESE,122,0.0,6.0,47,0.00,,,0.00,446,weatherlink.com 1.10,2013-08-12 18:42:00,
2013-08-12 11:57:00,85.9,62.0,29.72,ESE,122,0.0,7.0,44,0.00,,,0.00,972,weatherlink.com 1.10,2013-08-12 18:57:00,
2013-08-12 12:13:00,86.5,63.0,29.71,ENE,72,1.0,10.0,45,0.00,,,0.00,1002,weatherlink.com 1.10,2013-08-12 19:13:00,
2013-08-12 12:27:00,86.4,61.0,29.71,SE,138,1.0,9.0,43,0.00,,,0.00,993,weatherlink.com 1.10,2013-08-12 19:27:00,
2013-08-12 12:42:00,87.0,62.0,29.70,SSW,210,1.0,7.0,43,0.00,,,0.00,1009,weatherlink.com 1.10,2013-08-12 19:42:00,
2013-08-12 12:58:00,87.1,63.0,29.69,SSE,158,3.0,5.0,44,0.00,,,0.00,169,weatherlink.com 1.10,2013-08-12 19:58:00,
2013-08-12 13:12:00,87.3,62.0,29.68,SSE,147,1.0,5.0,43,0.00,,,0.00,243,weatherlink.com 1.10,2013-08-12 20:12:00,
2013-08-12 13:27:00,86.9,62.0,29.68,East,98,3.0,3.0,44,0.00,,,0.00,178,weatherlink.com 1.10,2013-08-12 20:27:00,
2013-08-12 13:42:00,87.4,64.0,29.68,SE,125,0.0,10.0,45,0.00,,,0.00,1069,weatherlink.com 1.10,2013-08-12 20:42:00,
2013-08-12 13:57:00,87.9,63.0,29.68,East,86,8.0,11.0,44,0.00,,,0.00,128,weatherlink.com 1.10,2013-08-12 20:57:00,
2013-08-12 14:12:00,84.8,62.0,29.67,ENE,62,6.0,12.0,47,0.00,,,0.00,234,weatherlink.com 1.10,2013-08-12 21:12:00,
2013-08-12 14:27:00,85.0,63.0,29.66,East,83,3.0,9.0,48,0.00,,,0.00,946,weatherlink.com 1.10,2013-08-12 21:27:00,
2013-08-12 14:42:00,84.4,61.0,29.66,East,79,2.0,7.0,46,0.00,,,0.00,141,weatherlink.com 1.10,2013-08-12 21:42:00,
2013-08-12 14:57:00,86.0,63.0,29.65,ENE,65,3.0,6.0,47,0.00,,,0.00,870,weatherlink.com 1.10,2013-08-12 21:57:00,
2013-08-12 15:12:00,87.2,63.0,29.64,NE,47,2.0,6.0,44,0.00,,,0.00,137,weatherlink.com 1.10,2013-08-12 22:12:00,
2013-08-12 15:27:00,87.1,64.0,29.64,ESE,110,3.0,7.0,46,0.00,,,0.00,700,weatherlink.com 1.10,2013-08-12 22:27:00,
2013-08-12 15:42:00,88.1,64.0,29.63,East,88,1.0,3.0,44,0.00,,,0.00,679,weatherlink.com 1.10,2013-08-12 22:42:00,
2013-08-12 15:57:00,88.1,63.0,29.63,NNE,27,2.0,4.0,43,0.00,,,0.00,679,weatherlink.com 1.10,2013-08-12 22:57:00,
2013-08-12 16:12:00,88.3,60.0,29.63,ESE,118,0.0,4.0,39,0.00,,,0.00,589,weatherlink.com 1.10,2013-08-12 23:12:00,
2013-08-12 16:27:00,88.6,61.0,29.63,NE,37,2.0,5.0,40,0.00,,,0.00,134,weatherlink.com 1.10,2013-08-12 23:27:00,
2013-08-12 16:42:00,87.2,61.0,29.63,NE,47,0.0,4.0,41,0.00,,,0.00,193,weatherlink.com 1.10,2013-08-12 23:42:00,
2013-08-12 16:57:00,89.2,62.0,29.62,NE,47,1.0,2.0,40,0.00,,,0.00,445,weatherlink.com 1.10,2013-08-12 23:57:00,
2013-08-12 17:12:00,88.7,61.0,29.62,ENE,60,2.0,4.0,40,0.00,,,0.00,436,weatherlink.com 1.10,2013-08-13 00:12:00,
2013-08-12 17:29:00,87.7,61.0,29.62,WNW,300,9.0,11.0,41,0.00,,,0.00,339,weatherlink.com 1.10,2013-08-13 00:29:00,
2013-08-12 17:43:00,84.8,61.0,29.62,WNW,300,1.0,9.0,45,0.00,,,0.00,241,weatherlink.com 1.10,2013-08-13 00:43:00,
2013-08-12 17:58:00,84.1,62.0,29.62,North,6,2.0,6.0,47,0.00,,,0.00,202,weatherlink.com 1.10,2013-08-13 00:58:00,
2013-08-12 18:13:00,84.5,63.0,29.62,North,9,0.0,3.0,49,0.00,,,0.00,109,weatherlink.com 1.10,2013-08-13 01:13:00,
2013-08-12 18:28:00,84.6,63.0,29.63,North,1,0.0,2.0,49,0.00,,,0.00,74,weatherlink.com 1.10,2013-08-13 01:28:00,
2013-08-12 18:44:00,84.1,65.0,29.63,ENE,68,2.0,3.0,52,0.00,,,0.00,46,weatherlink.com 1.10,2013-08-13 01:44:00,
2013-08-12 18:58:00,82.4,63.0,29.63,ENE,75,0.0,3.0,53,0.00,,,0.00,23,weatherlink.com 1.10,2013-08-13 01:58:00,
2013-08-12 19:13:00,81.2,62.0,29.64,East,80,1.0,3.0,53,0.00,,,0.00,0,weatherlink.com 1.10,2013-08-13 02:13:00,
2013-08-12 19:28:00,80.5,63.0,29.65,East,82,0.0,2.0,55,0.00,,,0.00,0,weatherlink.com 1.10,2013-08-13 02:28:00,
2013-08-12 19:43:00,80.0,62.0,29.65,SE,125,0.0,4.0,55,0.00,,,0.00,0,weatherlink.com 1.10,2013-08-13 02:43:00,
2013-08-12 19:58:00,78.9,61.0,29.66,ESE,122,1.0,3.0,54,0.00,,,0.00,0,weatherlink.com 1.10,2013-08-13 02:58:00,
2013-08-12 20:13:00,77.7,61.0,29.66,ENE,77,1.0,4.0,56,0.00,,,0.00,0,weatherlink.com 1.10,2013-08-13 03:13:00,
2013-08-12 20:28:00,77.0,61.0,29.67,East,82,2.0,3.0,58,0.00,,,0.00,0,weatherlink.com 1.10,2013-08-13 03:28:00,
2013-08-12 20:43:00,76.5,61.0,29.67,East,101,3.0,5.0,59,0.00,,,0.00,0,weatherlink.com 1.10,2013-08-13 03:43:00,
2013-08-12 20:59:00,75.8,60.0,29.68,East,93,2.0,4.0,59,0.00,,,0.00,0,weatherlink.com 1.10,2013-08-13 03:59:00,
2013-08-12 21:13:00,75.4,60.0,29.68,ENE,75,2.0,5.0,60,0.00,,,0.00,0,weatherlink.com 1.10,2013-08-13 04:13:00,
2013-08-12 21:28:00,74.8,60.0,29.68,East,85,1.0,4.0,61,0.00,,,0.00,0,weatherlink.com 1.10,2013-08-13 04:28:00,
2013-08-12 21:43:00,74.4,61.0,29.68,East,85,2.0,2.0,63,0.00,,,0.00,0,weatherlink.com 1.10,2013-08-13 04:43:00,
2013-08-12 21:58:00,73.7,61.0,29.68,East,95,2.0,4.0,64,0.00,,,0.00,0,weatherlink.com 1.10,2013-08-13 04:58:00,
2013-08-12 22:13:00,74.2,61.0,29.68,East,96,3.0,4.0,63,0.00,,,0.00,0,weatherlink.com 1.10,2013-08-13 05:13:00,
2013-08-12 22:28:00,73.9,61.0,29.68,East,98,1.0,3.0,65,0.00,,,0.00,0,weatherlink.com 1.10,2013-08-13 05:28:00,
2013-08-12 22:43:00,73.0,61.0,29.68,East,91,3.0,4.0,66,0.00,,,0.00,0,weatherlink.com 1.10,2013-08-13 05:43:00,
2013-08-12 22:58:00,73.2,60.0,29.68,East,96,2.0,6.0,63,0.00,,,0.00,0,weatherlink.com 1.10,2013-08-13 05:58:00,
2013-08-12 23:13:00,73.5,60.0,29.70,East,96,0.0,2.0,63,0.00,,,0.00,0,weatherlink.com 1.10,2013-08-13 06:13:00,
2013-08-12 23:28:00,73.3,62.0,29.70,WNW,299,0.0,7.0,67,0.00,,,0.00,0,weatherlink.com 1.10,2013-08-13 06:28:00,
2013-08-12 23:43:00,72.3,62.0,29.70,NNE,16,1.0,4.0,69,0.00,,,0.00,0,weatherlink.com 1.10,2013-08-13 06:43:00,
2013-08-12 23:58:00,71.7,61.0,29.70,NE,41,0.0,1.0,69,0.00,,,0.00,0,weatherlink.com 1.10,2013-08-13 06:58:00,